Location: Great Falls Observatory Park
(38.9954°N, 77.3130°W)
Time: 09:52:07
(UTC-04:00)

Tiangong 2 - Visible Passes

Search period start: 21 March 2019 00:00
Search period end: 31 March 2019 00:00
Orbit: 379 x 390 km, 42.8° (Epoch: 21 March)

Date Brightness Start Highest point End Pass type
(mag) Time Alt. Az. Time Alt. Az. Time Alt. Az.
21 Mar 4.3 04:43:55 15° ENE 04:43:55 15° ENE 04:44:33 10° E visible
21 Mar 1.1 06:16:09 18° WNW 06:18:20 62° SSW 06:21:29 10° ESE visible
22 Mar 2.0 05:19:39 47° E 05:19:39 47° E 05:22:03 10° ESE visible
23 Mar 1.8 05:55:32 32° SW 05:56:01 34° SSW 05:58:56 10° SE visible
24 Mar 4.0 04:59:18 13° SE 04:59:18 13° SE 04:59:44 10° ESE visible
24 Mar 3.4 06:32:03 10° SW 06:32:52 11° SW 06:33:42 10° SSW visible
25 Mar 3.6 05:35:31 12° S 05:35:31 12° S 05:35:57 10° SSE visible
28 Mar 3.3 20:43:17 10° S 20:44:01 13° S 20:44:01 13° S visible
29 Mar 3.1 21:19:08 10° SW 21:20:23 21° SW 21:20:23 21° SW visible
30 Mar 2.1 20:19:58 10° SSW 20:22:43 28° SSE 20:24:17 18° ESE visible
30 Mar 4.3 21:56:13 10° W 21:56:32 12° W 21:56:32 12° W visible
